Weather History for Kirksville, MO

Change the Weather History Date:

Monday, December 10, 2012

  Actual Average Record
Temperature  
Mean Temperature 25 °F 30 °F  
Max Temperature 32 °F 38 °F 62 °F (1979)
Min Temperature 17 °F 22 °F -12 °F (1919)
Degree Days  
Heating Degree Days 40 35  
Month to date heating degree days 226 335  
Since 1 July heating degree days 1496 1556  
Cooling Degree Days 0 0  
Month to date cooling degree days 0 0  
Year to date cooling degree days 1321 939  
Moisture  
Dew Point 14 °F    
Average Humidity 69    
Maximum Humidity 80    
Minimum Humidity 58    
Precipitation  
Precipitation 0.00 in 0.06 in 0.97 in (1971)
Month to date precipitation 0.15 0.65  
Year to date precipitation 26.57 38.21  
Sea Level Pressure  
Sea Level Pressure 30.02 in    
Wind  
Wind Speed 10 mph (West)    
Max Wind Speed 21 mph    
Max Gust Speed 26 mph    
Visibility 10 miles    
Events      
T = Trace of Precipitation, MM = Missing Value Source: NWS Daily Summary

Daily Weather History Graph

Daily Weather History Graph

Search for Another Location

Airport:

Trip Planner

Search our weather history database for the weather conditions in past years. The results will help you decide how hot, cold, wet, or windy it might be!

Date:

Astronomy

Dec. 10, 2012 Rise Set
Actual Time 7:21 AM CST 4:44 PM CST
Civil Twilight 6:51 AM CST 5:15 PM CST
Nautical Twilight 6:17 AM CST 5:49 PM CST
Astronomical Twilight 5:44 AM CST 6:22 PM CST
Moon 4:05 AM CST (12/10) 2:34 PM CST (12/10)
Length of Visible Light 10h 23m
Length of Day
9h 22m
Waning Crescent, 10% of the Moon is Illuminated
Dec 10
Waning Crescent
Dec 13
New
Dec 19
First Quarter
Dec 28
Full
Jan 4
Last Quarter

Hourly Weather History & Observations

Time (CST) Temp. Windchill Dew Point Humidity Pressure Visibility Wind Dir Wind Speed Gust Speed Precip Events Conditions
12:55 AM 21.0 °F 7.6 °F 14.0 °F 74% 29.98 in 10.0 mi WNW 15.0 mph 25.3 mph N/A   Overcast
1:55 AM 21.0 °F 9.9 °F 14.0 °F 74% 29.98 in 10.0 mi WNW 10.4 mph 20.7 mph N/A   Overcast
2:55 AM 19.9 °F 6.2 °F 12.9 °F 74% 29.98 in 10.0 mi WNW 15.0 mph 20.7 mph N/A   Overcast
3:55 AM 19.0 °F 4.5 °F 12.9 °F 77% 29.97 in 10.0 mi WNW 16.1 mph 21.9 mph N/A   Overcast
4:55 AM 19.0 °F 6.1 °F 12.9 °F 77% 29.98 in 10.0 mi WNW 12.7 mph - N/A   Overcast
5:55 AM 19.0 °F 6.1 °F 12.9 °F 77% 29.99 in 10.0 mi WNW 12.7 mph - N/A   Overcast
6:55 AM 19.9 °F 7.9 °F 12.9 °F 74% 30.01 in 10.0 mi WNW 11.5 mph - N/A   Overcast
7:35 AM 19.4 °F 7.2 °F 12.2 °F 74% 29.99 in 10.0 mi West 11.5 mph - N/A   Overcast
7:55 AM 19.0 °F 6.1 °F 12.9 °F 77% 30.04 in 10.0 mi West 12.7 mph - N/A   Overcast
8:10 AM 19.4 °F 6.0 °F 12.2 °F 74% 29.99 in 10.0 mi WNW 13.8 mph 18.4 mph N/A   Overcast
8:55 AM 19.9 °F 7.9 °F 12.9 °F 74% 30.05 in 10.0 mi WNW 11.5 mph - N/A   Overcast
9:44 AM 21.2 °F 7.8 °F 14.0 °F 74% 30.00 in 10.0 mi West 15.0 mph 19.6 mph N/A   Overcast
9:55 AM 21.9 °F 10.4 °F 14.0 °F 72% 30.05 in 10.0 mi WNW 11.5 mph 21.9 mph N/A   Overcast
10:55 AM 25.0 °F 14.2 °F 16.0 °F 69% 30.04 in 10.0 mi WNW 11.5 mph - N/A   Overcast
11:55 AM 26.1 °F 13.6 °F 17.1 °F 69% 30.02 in 10.0 mi WNW 16.1 mph - N/A   Overcast
12:18 PM 26.6 °F 16.8 °F 17.6 °F 69% 29.97 in 10.0 mi West 10.4 mph - N/A   Overcast
12:45 PM 28.4 °F 19.1 °F 17.6 °F 64% 29.97 in 10.0 mi West 10.4 mph 18.4 mph N/A   Scattered Clouds
12:55 PM 30.0 °F 22.4 °F 18.0 °F 61% 30.01 in 10.0 mi West 8.1 mph - N/A   Clear
1:55 PM 30.9 °F 20.7 °F 18.0 °F 59% 30.00 in 10.0 mi NW 13.8 mph - N/A   Clear
2:55 PM 30.9 °F 22.8 °F 17.1 °F 57% 30.00 in 10.0 mi WNW 9.2 mph - N/A   Clear
3:55 PM 28.9 °F 19.2 °F 17.1 °F 61% 30.01 in 10.0 mi West 11.5 mph - N/A   Clear
4:55 PM 26.1 °F 18.4 °F 16.0 °F 66% 30.03 in 10.0 mi West 6.9 mph - N/A   Clear
5:55 PM 24.1 °F 19.7 °F 15.1 °F 69% 30.04 in 10.0 mi WSW 3.5 mph - N/A   Clear
6:55 PM 21.0 °F 14.6 °F 14.0 °F 74% 30.04 in 10.0 mi West 4.6 mph - N/A   Clear
7:55 PM 18.0 °F 11.1 °F 12.9 °F 81% 30.06 in 10.0 mi West 4.6 mph - N/A   Clear
8:55 PM 19.9 °F 14.9 °F 14.0 °F 78% 30.06 in 10.0 mi SW 3.5 mph - N/A   Clear
9:55 PM 19.9 °F 14.9 °F 12.9 °F 74% 30.07 in 10.0 mi WSW 3.5 mph - N/A   Clear
10:55 PM 18.0 °F 12.7 °F 12.9 °F 81% 30.07 in 10.0 mi WSW 3.5 mph - N/A   Clear
11:55 PM 18.0 °F 9.8 °F 12.9 °F 81% 30.07 in 10.0 mi SW 5.8 mph - N/A   Clear